IW2NIA-3 Weather Reports


Display with metric or nautical units.
time (UTC)temp
F
wind
direction
speed
MPH
gust
MPH
rain 1hr
in
rain 24hr
in
rain mn
in
humidity
%
barometer
mb
20260901113328 81 148 3.0 6.0 0.00 0.00 0.00 62 1017.9
20260901111848 80 181 3.0 6.0 0.00 0.00 0.00 63 1018.1
20260901110346 80 243 3.0 12.0 0.00 0.00 0.00 62 1018.3
20260901104840 79 257 5.0 10.0 0.00 0.00 0.00 65 1018.2
20260901103348 80 180 1.0 10.0 0.00 0.00 0.00 65 1018.2
20260901101842 80 182 2.0 10.0 0.00 0.00 0.00 65 1018.2
20260901100325 79 219 3.0 14.0 0.00 0.00 0.00 65 1018.4
20260901094841 79 221 3.0 9.0 0.00 0.00 0.00 66 1018.4
20260901093334 78 192 3.0 6.0 0.00 0.00 0.00 73 1018.4
20260901091831 77 198 7.0 11.0 0.00 0.00 0.00 74 1018.4
20260901090345 77 208 2.0 9.0 0.00 0.00 0.00 77 1018.4
20260901084838 77 194 2.0 8.0 0.00 0.00 0.00 77 1018.3
20260901083335 76 184 1.0 7.0 0.00 0.00 0.00 77 1018.3
20260901082001 76 205 4.0 7.0 0.00 0.00 0.00 78 1018.2
20260901080344 76 182 2.0 11.0 0.00 0.00 0.00 77 1018.1
20260901074847 75 121 7.0 10.0 0.00 0.00 0.00 78 1017.9
20260901073326 74 106 4.0 9.0 0.00 0.00 0.00 79 1017.9
20260901071837 74 144 4.0 7.0 0.00 0.00 0.00 80 1017.9
20260901070347 72 132 4.0 5.0 0.00 0.00 0.00 81 1017.8
20260901064837 71 111 2.0 6.0 0.00 0.00 0.00 80 1017.7
20260901063334 71 131 2.0 6.0 0.00 0.00 0.00 78 1017.7
20260901061831 71 157 5.0 7.0 0.00 0.00 0.00 74 1017.5
20260901060342 71 143 4.0 7.0 0.00 0.00 0.00 72 1017.2
20260901054841 69 132 4.0 8.0 0.00 0.00 0.00 74 1017.0
20260901053340 68 96 3.0 4.0 0.00 0.00 0.00 75 1016.8
20260901051829 68 96 2.0 3.0 0.00 0.00 0.00 73 1016.6
20260901050345 68 96 2.0 3.0 0.00 0.00 0.00 71 1016.5
20260901044831 68 101 3.0 4.0 0.00 0.00 0.00 69 1016.4
20260901043345 67 103 3.0 5.0 0.00 0.00 0.00 70 1016.1
20260901041828 68 130 2.0 4.0 0.00 0.00 0.00 68 1015.9
20260901040330 67 71 3.0 4.0 0.00 0.00 0.00 67 1015.7
20260901034842 68 72 0.0 2.0 0.00 0.00 0.00 67 1015.5
20260901033340 68 65 2.0 3.0 0.00 0.00 0.00 65 1015.3
20260901031837 67 26 3.0 4.0 0.00 0.00 0.00 70 1015.2
20260901030332 66 47 3.0 4.0 0.00 0.00 0.00 77 1015.0
20260901024830 66 63 3.0 3.0 0.00 0.00 0.00 79 1015.0
20260901023330 66 51 0.0 3.0 0.00 0.00 0.00 78 1015.0
20260901021843 66 53 2.0 3.0 0.00 0.00 0.00 81 1015.0
20260901020338 66 36 2.0 4.0 0.00 0.00 0.00 83 1015.0
20260901014847 66 27 0.0 1.0 0.00 0.00 0.00 84 1015.1
20260901013342 67 27 0.0 2.0 0.00 0.00 0.00 84 1015.1
20260901011837 66 233 0.0 0.0 0.00 0.00 0.00 85 1015.1
20260901010327 66 233 0.0 0.0 0.00 0.00 0.00 86 1015.1
20260901004829 67 233 0.0 0.0 0.00 0.00 0.00 86 1015.0
20260901003341 67 233 0.0 0.0 0.00 0.00 0.00 87 1014.9
20260901001840 67 233 0.0 0.0 0.00 0.00 0.00 87 1014.9
20260901000336 68 232 0.0 0.0 0.00 0.00 0.00 87 1014.7
20260831234837 68 232 0.0 0.0 0.00 0.00 0.00 87 1014.7
20260831233332 69 232 0.0 0.0 0.00 0.00 0.00 86 1014.7
20260831231831 69 233 0.0 4.0 0.00 0.00 0.00 85 1014.7
20260831230330 70 80 1.0 4.0 0.00 0.00 0.00 85 1014.6
20260831224844 70 350 0.0 0.0 0.00 0.00 0.00 85 1014.6
20260831223340 71 355 0.0 0.0 0.00 0.00 0.00 84 1014.5
20260831221830 71 355 0.0 0.0 0.00 0.00 0.00 83 1014.4
20260831220329 72 355 0.0 0.0 0.00 0.00 0.00 83 1014.4
20260831214847 72 355 0.0 2.0 0.00 0.00 0.00 82 1014.3
20260831213338 73 355 1.0 3.0 0.00 0.00 0.00 82 1014.3
20260831211834 73 355 0.0 2.0 0.00 0.00 0.00 82 1014.2
20260831210332 73 355 3.0 4.0 0.00 0.00 0.00 82 1014.1
20260831204846 73 223 0.0 4.0 0.00 0.00 0.00 81 1014.1
20260831203340 74 251 1.0 5.0 0.00 0.00 0.00 76 1013.9
20260831201829 75 340 0.0 0.0 0.00 0.00 0.00 77 1013.8
20260831200340 75 338 0.0 0.0 0.00 0.00 0.00 76 1013.7
20260831194830 76 338 0.0 0.0 0.00 0.00 0.00 76 1013.5
20260831193346 76 338 0.0 0.0 0.00 0.00 0.00 75 1013.5
20260831191826 77 338 0.0 0.0 0.00 0.00 0.00 73 1013.4
20260831190341 78 338 0.0 0.0 0.00 0.00 0.00 72 1013.3
20260831184828 78 338 0.0 0.0 0.00 0.00 0.00 72 1013.1
20260831183343 79 338 0.0 4.0 0.00 0.00 0.00 72 1012.9
20260831181831 79 256 0.0 0.0 0.00 0.00 0.00 69 1012.8
20260831180329 81 256 0.0 0.0 0.00 0.00 0.00 65 1012.8
20260831174844 83 256 0.0 0.0 0.00 0.00 0.00 55 1012.7
20260831173340 84 257 0.0 0.0 0.00 0.00 0.00 48 1012.6
20260831171837 85 257 0.0 1.0 0.00 0.00 0.00 48 1012.6
20260831170331 85 255 0.0 2.0 0.00 0.00 0.00 48 1012.6
20260831164843 86 255 1.0 4.0 0.00 0.00 0.00 46 1012.7
20260831163340 86 258 1.0 4.0 0.00 0.00 0.00 48 1012.7
20260831161838 87 250 1.0 4.0 0.00 0.00 0.00 47 1012.7
20260831160348 87 252 2.0 5.0 0.00 0.00 0.00 45 1012.8
20260831154843 88 260 2.0 4.0 0.00 0.00 0.00 47 1013.0
20260831153333 87 40 3.0 4.0 0.00 0.00 0.00 46 1013.0
20260831151848 88 228 1.0 7.0 0.00 0.00 0.00 46 1013.1
20260831150344 88 261 3.0 6.0 0.00 0.00 0.00 47 1013.2
20260831144836 87 246 1.0 5.0 0.00 0.00 0.00 45 1013.1
20260831143330 87 320 4.0 5.0 0.00 0.00 0.00 46 1013.2
20260831141844 88 235 7.0 12.0 0.00 0.00 0.00 46 1013.2
20260831140340 87 295 1.0 6.0 0.00 0.00 0.00 47 1013.2
20260831134828 88 261 5.0 11.0 0.00 0.00 0.00 51 1013.2
20260831133334 87 268 1.0 6.0 0.00 0.00 0.00 56 1013.3
20260831131829 87 277 3.0 6.0 0.00 0.00 0.00 52 1013.4
20260831130330 87 265 3.0 5.0 0.00 0.00 0.00 51 1013.5
20260831124843 86 229 1.0 5.0 0.00 0.00 0.00 55 1013.7
20260831123335 86 276 3.0 7.0 0.00 0.00 0.00 49 1013.8
20260831121846 86 232 3.0 6.0 0.00 0.00 0.00 52 1014.0
20260831120344 86 313 4.0 10.0 0.00 0.00 0.00 53 1014.0
20260831114839 85 355 2.0 7.0 0.00 0.00 0.00 56 1014.1